Powrót do katalogu

COSMOS 1700

AktywnyNawigacjaGEO
NORAD 16199·PAYLOAD·🇷🇺 Russia

Wystrzelony Oct 25, 1985 z Baikonur Cosmodrome

Loading…

TLE

ŚwieżeSource: Space-Track

Epoka: Sep 14, 2026, 15:57 UTC

1 16199U 85102A   26257.66480141 -.00000274  00000-0  00000-0 0  9998
2 16199   9.5665 318.3289 0006295 245.1499 122.3380  1.00290157152573

Śledź COSMOS 1700 w czasie rzeczywistym z AllMySat

Download on the App Store